Temp
15 14 16 17 17 20 20 20 21 22 23 23 21 22 24 25 24 22 22 23 24 24 22 20 20 20 20 22 22 23 24 25 23 23 23 24 23 23 24 24 24 25 25 25
15 15 16 18 18 19 20 20 20 22 23 22 21 21 22 24 24 24 23 21 23 24 22 21 20 20 20 21 22 22 22 23 22 23 24 23 23 23 24 25 25 25 25 25
15 17 18 19 18 19 19 19 21 22 23 22 20 20 21 23 23 23 22 23 22 22 22 22 20 19 20 20 21 21 21 22 23 24 24 24 22 22 24 25 25 25 24 25
17 19 19 18 19 19 18 20 22 22 21 19 21 20 20 21 22 23 22 20 21 22 22 20 19 19 20 21 22 22 22 22 22 23 22 21 20 20 19 20 21 22 24 24
17 18 18 19 20 20 20 22 21 22 20 21 21 19 19 20 21 22 21 21 20 20 20 18 18 19 20 20 20 20 21 21 21 22 21 20 20 19 19 19 19 19 19 19
18 20 19 19 21 21 21 22 21 20 18 18 19 19 19 20 21 23 22 21 21 19 18 18 19 19 19 20 21 21 21 20 20 20 20 20 19 19 19 19 18 18 18 18
20 20 21 22 21 21 21 19 17 18 17 16 19 19 19 21 21 23 23 21 19 18 19 18 18 18 18 19 20 20 20 19 19 19 19 19 19 19 18 18 18 18 18 17
17 18 20 21 20 19 19 19 17 19 17 18 20 19 20 21 19 19 21 19 18 18 19 18 18 18 18 19 19 19 19 19 20 20 19 19 19 19 18 18 18 17 17 17
17 19 22 22 22 21 20 18 19 19 18 18 19 19 22 19 19 19 19 19 19 19 19 18 17 18 18 19 20 20 20 20 20 20 19 19 19 19 18 18 18 17 17 17
20 19 22 22 22 22 21 20 19 16 18 18 18 18 19 17 17 18 19 17 18 18 18 17 17 17 18 19 20 21 21 20 20 20 20 20 19 19 18 18 17 17 17 17
19 19 20 23 21 19 20 19 17 17 16 16 16 16 17 18 17 16 19 18 18 18 17 17 16 17 19 19 20 20 20 20 19 19 19 19 19 18 18 18 17 17 16 16
19 17 18 21 22 21 20 19 18 15 17 16 15 15 17 17 17 16 18 18 17 17 16 15 15 17 18 19 19 19 19 20 19 19 19 18 18 17 17 17 17 16 16 15
18 16 17 19 19 20 21 21 18 16 15 16 15 16 17 17 17 16 16 16 16 16 15 15 15 16 17 18 18 19 19 19 18 18 17 17 17 17 17 16 15 15 15 14
19 15 17 16 18 18 20 20 19 18 15 16 17 19 17 18 18 18 16 15 16 17 17 16 15 14 16 17 18 18 18 17 17 17 17 17 17 16 15 14 14 13 12 12
17 17 18 17 19 19 19 19 20 19 18 18 19 18 17 17 18 17 17 17 17 17 17 15 13 13 15 16 17 17 17 17 17 17 17 16 15 14 13 12 11 10 10 10
15 15 17 17 19 19 19 19 19 19 18 17 17 18 16 16 16 17 18 17 16 17 16 15 14 14 15 16 17 17 17 17 15 14 13 12 11 10 9 9 9 9 9 8
15 14 14 17 17 19 18 20 20 18 18 18 17 17 15 16 16 16 16 16 14 14 15 15 14 12 13 14 14 13 13 13 12 10 9 8 8 8 7 7 7 7 7 7
14 13 12 14 16 17 19 19 18 16 16 16 15 15 15 14 13 14 14 15 14 14 13 10 9 8 8 9 9 9 9 8 8 7 6 6 6 5 5 5 5 5 4 3
14 13 12 13 13 18 20 19 19 17 15 15 15 15 14 14 15 13 13 12 10 9 8 7 6 6 6 7 7 8 7 6 5 4 4 4 3 3 2 2 2 2 2 2
15 14 13 13 16 17 17 18 18 17 14 15 15 15 14 14 13 10 10 9 8 7 6 6 6 5 5 5 5 5 4 4 3 2 2 2 1 1 0 0 0 0 0 -0
14 13 14 12 12 16 18 18 18 17 14 14 14 13 13 11 10 9 8 7 6 6 6 5 4 4 3 3 3 3 2 1 1 1 0 -0 -0 -1 -1 -1 -1 -2 -1 -0
15 13 11 12 13 17 17 18 18 14 13 13 12 11 10 9 8 7 7 5 5 4 4 4 4 3 2 2 1 1 0 -0 -0 -1 -1 -2 -2 -2 -2 -2 -2 -1 -1 -1
16 15 12 12 13 12 13 13 12 13 12 12 11 10 9 8 7 6 5 4 4 3 3 2 2 2 1 0 0 -1 -1 -2 -2 -3 -3 -3 -2 -2 -2 -2 -2 -2 -1 -1
15 14 13 13 13 12 12 12 12 12 11 10 10 9 8 6 5 4 3 3 2 2 2 1 1 0 -0 -1 -1 -2 -2 -3 -3 -4 -4 -4 -3 -2 -2 -2 -2 -2 -2 -1
14 14 13 12 12 12 11 11 11 10 10 9 8 7 6 5 4 3 2 2 2 1 1 0 -1 -1 -2 -2 -3 -3 -3 -4 -4 -4 -3 -3 -3 -3 -2 -2 -2 -2 -1 -1
12 14 12 11 13 12 10 10 11 10 9 8 7 6 5 4 3 2 1 1 1 0 -0 -1 -2 -2 -3 -3 -3 -3 -3 -4 -4 -3 -3 -3 -3 -2 -2 -2 -2 -1 -1 -1
Height
748 758 752 753 756 751 755 764 764 759 754 757 767 763 756 747 750 759 760 757 752 754 750 751 753 754 757 759 761 763 762 764 766 772 776 775 774 776 777 780 780 783 783 784
750 753 748 748 753 754 756 762 767 757 752 759 763 767 757 748 747 746 752 757 752 751 752 753 753 755 757 758 758 762 762 764 768 770 772 774 776 776 776 777 778 782 783 784
747 742 741 745 752 757 760 767 763 762 754 755 765 775 764 753 747 745 743 742 747 750 752 753 755 754 756 757 759 762 766 767 770 771 774 775 774 775 775 774 776 781 783 781
741 731 736 746 749 751 766 754 755 758 765 784 760 789 770 761 754 745 742 749 747 748 751 753 756 757 759 760 762 763 766 769 772 773 774 776 773 773 775 776 776 779 778 778
738 732 740 744 743 744 756 746 753 756 766 768 769 785 771 758 759 749 744 739 748 747 748 753 757 757 760 764 766 767 769 772 774 773 774 773 773 777 778 779 778 777 777 777
726 717 727 732 730 735 736 746 753 759 775 792 776 779 779 764 752 743 738 738 739 746 749 752 760 762 764 765 766 768 770 774 776 776 778 778 778 780 782 782 780 781 780 779
723 723 718 718 734 732 740 760 788 788 791 795 769 780 770 746 740 736 733 736 740 743 748 755 760 765 768 767 770 771 774 779 781 782 784 786 785 786 786 786 786 785 785 783
737 739 722 715 727 743 749 755 776 779 795 785 763 778 761 741 739 737 731 734 739 742 745 752 759 765 766 768 770 773 775 778 781 784 786 786 785 786 788 789 787 786 786 785
734 729 708 709 713 725 744 757 746 764 768 783 772 759 742 743 739 735 735 732 736 739 744 750 757 760 763 766 767 769 769 772 777 780 783 785 786 787 788 788 788 788 788 787
716 732 710 707 712 717 725 730 760 771 783 784 779 773 767 757 750 740 736 737 736 738 745 750 754 759 763 764 765 764 768 772 775 778 782 783 784 785 785 785 786 786 785 783
712 722 721 706 720 730 733 740 751 754 765 787 794 781 757 752 748 745 736 737 734 735 742 748 754 758 760 762 762 766 771 771 775 778 780 780 781 782 783 783 783 782 782 782
710 727 732 716 704 704 715 728 737 769 768 772 778 779 750 747 744 743 736 738 742 743 746 750 753 757 758 760 763 767 769 771 776 778 780 781 781 781 782 781 780 781 781 779
710 730 743 731 721 709 717 715 727 739 755 766 781 773 745 743 742 744 743 743 745 745 751 755 756 756 757 760 764 765 769 772 777 780 781 782 782 781 781 780 778 777 776 775
698 728 731 745 731 727 724 722 724 728 761 760 756 748 750 744 739 747 750 744 747 749 753 757 760 760 761 764 766 768 771 775 779 780 781 780 779 779 778 775 774 774 773 772
704 723 721 723 717 717 722 724 722 726 731 749 741 745 743 741 735 747 748 746 747 752 757 761 765 766 768 768 770 772 773 777 780 780 779 778 777 777 776 774 773 773 772 770
709 729 723 730 721 719 723 722 723 725 732 736 740 743 741 742 743 745 748 752 755 763 764 768 770 771 769 770 773 776 777 779 780 779 779 778 777 776 774 773 771 769 767 763
711 724 737 736 728 722 737 723 724 733 731 732 745 738 741 746 747 752 753 754 761 773 774 774 774 774 777 778 779 779 779 779 779 780 780 779 777 775 773 770 767 763 759 755
713 721 735 745 738 749 726 718 724 739 744 737 738 742 745 753 759 759 760 761 768 777 784 787 783 783 783 783 782 782 782 781 782 781 781 778 775 773 770 766 761 757 753 749
705 717 740 749 754 732 722 719 718 733 756 747 743 750 752 755 756 771 771 774 780 786 790 786 785 786 786 786 786 784 783 782 782 782 780 778 775 771 766 761 757 752 748 743
705 705 725 744 741 746 732 719 717 725 763 753 750 751 754 756 772 787 784 784 787 789 789 787 788 789 789 789 787 785 784 784 783 781 779 776 772 768 762 757 752 747 744 739
715 720 731 744 755 738 721 719 718 744 759 751 754 757 762 770 777 786 791 792 793 792 792 792 791 789 790 790 787 786 785 783 782 779 775 771 767 762 757 753 748 744 741 737
712 726 749 745 750 739 718 721 729 739 746 751 758 763 770 777 785 790 791 792 792 791 791 792 792 793 792 790 788 786 784 782 779 774 770 766 761 757 752 748 745 741 738 734
713 713 732 740 740 734 726 731 736 740 748 760 763 772 773 782 788 790 793 795 796 797 798 798 797 795 793 791 788 785 781 777 773 769 765 760 756 752 749 745 741 738 735 732
709 709 727 734 744 739 739 741 744 750 757 766 769 774 778 785 791 795 798 800 801 801 800 799 797 795 793 790 787 784 780 776 772 766 761 757 753 750 747 744 741 738 735 732
712 714 729 744 751 747 754 753 755 762 765 770 776 781 786 790 797 799 801 803 803 803 802 800 798 796 793 790 786 783 779 774 769 765 762 758 754 751 746 743 741 738 735 732
719 722 731 743 739 742 760 763 763 766 772 777 779 788 793 793 797 801 803 804 803 803 803 801 799 797 794 790 786 782 778 773 770 766 762 758 754 750 746 742 737 735 732 728
Wind_Speed
7 4 16 10 5 0 5 6 3 3 7 4 6 5 7 6 5 8 6 5 6 6 6 14 19 23 26 26 26 29 28 29 30 28 27 15 18 24 28 34 28 24 23 26
5 9 7 6 7 5 1 4 5 2 5 7 5 7 8 8 5 6 8 8 6 3 6 8 16 23 28 31 29 29 29 30 33 39 35 24 27 23 26 29 27 27 28 28
7 5 10 10 8 9 4 5 2 2 4 2 6 5 3 6 5 2 5 2 5 8 7 5 7 19 25 26 29 29 28 24 26 29 27 31 28 25 26 24 24 23 27 30
4 7 16 6 10 7 5 7 5 4 2 5 6 6 5 6 9 7 9 8 7 8 6 5 6 8 12 15 20 19 15 11 9 10 13 9 1 1 4 5 6 10 14 17
8 12 11 11 6 8 5 6 6 5 4 3 3 3 7 0 10 15 9 10 10 8 9 11 7 18 21 20 20 20 19 15 12 11 12 13 16 13 12 15 15 15 15 12
7 5 8 9 7 9 7 4 1 3 4 2 6 5 4 6 7 8 7 8 7 8 9 12 12 17 22 24 25 24 23 22 21 21 20 21 22 20 21 21 22 21 22 24
4 5 4 5 5 4 5 6 1 1 1 6 4 1 7 9 8 10 12 11 9 13 15 13 14 16 20 28 29 29 28 25 24 25 25 23 23 22 22 21 21 23 24 25
5 2 8 5 7 7 6 8 5 4 4 2 2 6 6 0 3 7 9 7 11 16 17 17 13 19 23 30 28 29 30 28 24 22 21 20 21 20 19 19 20 21 22 23
5 3 1 7 5 10 5 5 9 5 4 3 2 7 1 7 11 10 4 12 16 18 17 16 14 20 24 27 27 27 26 23 20 19 18 17 16 15 14 13 14 15 17 20
2 2 6 5 6 2 7 7 5 3 6 3 4 4 4 7 9 10 1 9 14 16 13 12 12 19 24 28 25 23 21 21 18 16 13 12 10 9 9 10 12 14 16 17
3 3 5 5 6 10 2 3 5 4 5 6 2 5 4 2 5 9 3 4 14 17 15 13 9 18 27 26 24 23 22 21 18 16 14 10 7 5 4 7 9 11 13 13
7 4 3 5 3 6 8 9 7 5 4 3 4 5 3 3 4 7 2 6 5 7 8 7 10 19 22 24 23 22 20 19 17 14 12 9 6 4 4 6 8 9 12 13
6 2 2 5 5 4 4 2 5 6 4 5 5 5 1 4 9 7 8 9 6 6 7 6 6 10 18 20 16 15 16 16 13 9 6 5 2 2 4 5 6 10 11 10
8 3 6 6 5 3 3 4 3 7 4 5 5 3 5 8 8 5 5 8 9 7 3 2 3 4 8 11 13 15 14 10 6 3 2 1 4 5 6 6 6 6 7 10
7 5 2 5 4 5 3 3 2 4 6 6 8 8 7 5 13 5 2 9 14 9 8 7 6 5 10 11 9 9 8 6 4 4 4 5 5 5 4 4 5 8 11 14
3 4 4 3 1 3 6 6 6 4 5 6 7 2 2 6 5 5 4 11 15 12 10 8 7 9 12 11 11 8 7 6 2 4 6 6 7 6 8 10 14 18 22 25
3 6 4 1 3 3 4 3 3 6 5 4 5 6 7 8 7 4 6 10 16 9 6 7 8 13 13 9 6 8 7 4 8 10 10 11 13 15 18 21 24 27 29 32
6 5 3 3 3 1 3 11 18 14 8 6 12 9 10 11 9 11 10 13 11 7 5 6 12 17 19 19 18 15 14 14 13 14 15 17 21 23 26 28 30 32 34 33
4 6 4 5 3 3 3 4 6 5 5 7 14 16 17 15 17 10 8 11 10 8 9 15 20 21 22 22 18 17 17 16 15 16 18 20 22 24 26 27 30 32 32 31
4 6 5 3 5 5 4 1 14 7 3 3 11 17 17 4 7 2 6 10 12 16 16 18 19 19 20 19 18 19 19 17 16 16 18 21 22 25 27 28 28 29 25 25
3 4 5 4 4 2 4 2 2 4 7 6 6 6 7 5 4 7 7 12 15 16 16 16 18 19 16 17 19 19 18 16 15 17 20 22 26 27 24 24 24 20 19 20
4 5 2 3 4 2 2 2 3 8 7 11 11 13 16 13 11 9 9 9 12 14 17 18 16 14 14 16 18 17 16 18 20 21 23 24 25 23 21 21 19 20 18 17
3 4 6 2 1 4 1 10 11 13 17 9 15 9 15 12 9 8 8 8 12 13 14 13 11 10 11 17 15 17 18 20 20 22 24 25 24 23 22 21 19 18 17 16
3 2 5 4 6 11 14 15 14 14 14 11 11 11 12 13 9 8 6 6 8 10 11 12 12 12 12 16 16 17 19 21 21 23 23 23 24 22 21 19 17 17 17 16
1 4 8 10 8 16 10 12 16 15 15 15 12 11 12 12 7 6 5 6 8 10 11 14 14 12 14 17 18 19 21 23 21 18 20 20 19 20 21 19 19 19 20 19
2 10 6 5 13 10 6 7 14 17 15 14 17 12 10 12 9 10 7 10 11 13 14 14 15 15 18 19 19 22 23 20 19 20 19 19 20 20 20 21 22 18 19 22
Wind_Direction
191 141 199 185 113 84 129 141 228 131 227 136 195 197 241 229 173 156 174 217 274 189 168 196 185 182 193 205 214 226 232 218 228 246 265 278 298 271 258 253 258 257 266 265
130 216 182 156 175 224 164 141 202 261 189 169 196 221 228 243 249 218 191 179 215 137 153 169 202 193 196 201 210 224 232 237 237 244 259 277 288 294 271 266 265 268 265 266
159 209 178 179 170 185 189 155 159 174 179 157 114 304 225 272 286 219 273 201 169 179 165 160 185 204 212 212 216 222 227 230 243 249 261 278 274 264 273 268 270 270 268 265
205 227 174 172 193 155 183 170 184 247 128 209 158 257 252 230 258 261 248 175 188 209 164 148 137 142 189 203 210 222 231 243 247 246 243 248 293 156 28 354 327 295 278 268
226 189 176 192 175 153 184 158 192 218 183 136 337 121 269 6 231 253 267 257 176 198 165 142 152 139 136 134 130 127 127 113 96 88 92 97 83 72 59 51 43 32 20 352
206 179 162 178 175 166 164 134 102 58 129 202 208 181 265 230 210 238 234 242 204 140 130 125 135 129 129 125 117 112 106 93 91 88 82 79 76 71 64 53 48 39 34 32
181 237 176 139 160 152 121 117 241 217 87 223 196 57 229 255 238 227 234 222 154 141 141 142 146 147 144 135 129 121 115 106 99 93 89 84 80 71 61 52 46 38 29 22
158 159 161 180 172 157 174 154 152 174 186 294 143 224 244 259 360 297 241 175 151 149 150 154 154 153 149 144 138 131 124 117 109 101 93 84 76 69 61 50 40 32 23 14
138 273 167 173 175 147 171 140 192 96 22 79 231 285 150 16 3 354 261 155 158 157 158 154 154 157 154 148 143 136 122 114 109 104 101 94 88 81 75 59 41 27 15 7
107 169 200 206 117 265 166 160 97 355 158 181 275 287 239 354 336 336 286 180 162 149 147 153 158 164 160 151 142 126 127 126 124 120 111 100 87 73 59 46 32 21 10 360
159 89 304 119 171 165 108 163 64 113 134 165 171 262 211 293 325 327 259 171 165 154 156 161 156 165 158 148 140 142 145 137 139 142 142 138 131 108 61 33 19 0 350 344
189 152 225 195 203 189 165 172 151 129 199 140 159 259 196 253 12 12 123 101 113 138 152 143 153 157 152 149 148 154 152 150 156 156 155 148 136 105 46 12 2 351 337 333
175 241 345 355 359 10 64 141 119 119 95 179 136 250 190 58 48 17 66 62 50 119 130 147 157 164 160 158 149 143 152 150 153 158 154 139 106 18 352 345 333 330 332 334
115 129 157 185 200 153 17 23 158 122 113 167 201 178 188 203 113 322 38 80 55 88 127 122 81 80 117 141 139 138 139 143 147 140 159 306 323 338 335 334 352 354 345 337
131 157 108 69 121 123 109 69 301 126 147 157 197 187 214 197 147 212 50 73 46 51 60 73 77 75 95 96 111 119 116 121 162 237 295 338 336 324 348 19 3 344 334 330
359 132 107 67 137 130 95 21 61 56 144 84 84 92 169 100 101 147 108 84 72 58 74 67 70 81 91 100 103 125 164 202 278 22 42 48 56 29 12 354 341 334 330 328
108 129 106 117 292 133 59 152 48 54 22 121 152 203 148 137 129 97 96 84 95 47 30 61 57 44 42 42 43 43 46 62 70 61 39 21 5 353 344 336 331 330 328 324
138 102 91 132 35 105 231 118 104 93 29 6 100 116 105 99 85 76 61 88 105 131 67 56 69 60 59 65 69 71 65 57 44 29 11 356 347 339 332 329 327 325 325 323
230 110 90 125 121 300 54 185 135 136 15 10 116 111 107 106 92 46 36 69 78 86 81 75 71 68 60 52 45 42 34 23 10 2 351 343 337 332 329 327 324 323 323 322
84 77 108 128 111 179 250 11 125 100 61 31 123 127 128 113 104 32 53 72 72 70 67 66 63 59 50 36 25 19 12 -0 358 346 337 330 326 326 324 324 324 322 322 320
50 44 120 100 112 293 179 351 345 112 195 143 128 94 114 88 106 124 103 83 80 76 72 64 55 50 38 19 8 8 359 358 342 330 327 326 327 328 325 323 326 321 314 315
140 116 112 78 102 166 104 54 181 147 86 119 105 114 102 101 97 99 83 73 64 59 49 43 43 38 30 17 7 7 356 339 330 330 328 327 330 332 332 332 326 326 325 320
100 170 135 95 211 316 335 116 94 107 113 112 112 110 112 108 94 83 73 63 57 58 49 39 38 28 25 10 2 350 342 339 333 331 331 336 339 342 340 332 327 325 326 323
87 115 97 88 1 72 85 87 93 109 108 107 105 107 105 108 103 94 82 69 63 52 43 33 30 24 10 359 353 350 342 341 334 334 335 337 338 334 331 330 327 319 318 318
45 63 113 90 101 83 50 93 108 102 104 98 88 96 106 111 105 114 104 92 74 56 46 32 22 14 359 354 353 351 347 346 340 337 332 330 329 327 327 326 321 314 314 313
342 150 132 177 170 122 144 137 126 117 117 116 113 100 96 110 115 112 100 85 64 57 32 22 18 9 0 356 352 350 352 348 341 334 333 330 328 328 327 324 323 328 326 329